Regional Weather Roundup
Issued by NWS Burlington, VT

Home | Current Version | Previous Version | Text Only | Print | Product List | Glossary On
Versions: 1 2 3 4 5 6 7 8 9 10 11 12 13 14 15 16 17 18 19 20 21 22 23 24 25 26 27 28 29 30 31 32 33 34 35 36 37 38 39 40 41 42 43 44 45 46 47 48 49 50
000
ASUS41 KBTV 161430
RWRBTV
VERMONT REGIONAL WEATHER ROUNDUP
NATIONAL WEATHER SERVICE BURLINGTON VT
1000 AM EDT WED APR 16 2014

NOTE: "FAIR" INDICATES FEW OR NO CLOUDS BELOW 12,000 FEET WITH NO
SIGNIFICANT WEATHER AND/OR OBSTRUCTIONS TO VISIBILITY.

* THESE REPORTS ARE NOT UNDER NWS QUALITY CONTROL AND/OR DO NOT
  REPORT WEATHER SUCH AS PRECIPITATION AND FOG.

VTZ001>019-161500-
_____VERMONT_____


CITY           SKY/WX    TMP DP  RH WIND       PRES   REMARKS
BURLINGTON     MOSUNNY   25   9  50 N16       30.36R WCI  12
MONTPELIER     CLOUDY    20  11  68 NW17G26   30.31R WCI   5
MORRISVILLE    CLOUDY    21   8  57 NW12G26   30.31R WCI   9
ST. JOHNSBURY*   N/A     23   9  55 MISG      30.26R
LYNDONVILLE*   FAIR      21   9  58 SW17G24   30.26R WCI   7
MIDDLEBURY*    FAIR      25  15  63 NW12G18   30.33R WCI  15
RUTLAND*       PTSUNNY   23  14  68 N9        30.30R
SPRINGFIELD    SUNNY     29  13  51 NW9G22    30.27R
HIGHGATE*      PTSUNNY   26   9  49 W9        30.38R
NEWPORT*       CLOUDY    22  11  62 W14G21    30.29R WCI   9
BENNINGTON     PTSUNNY   26  13  57 NW6G17    30.29R
SUTTON*          N/A     19 N/A N/A MISG        N/A
GALLUP MILLS*    N/A     18 N/A N/A MISG        N/A
UNION VILLAGE*   N/A     27 N/A N/A MISG        N/A
MT. MANSFIELD*   N/A      9 N/A N/A NW20        N/A  WCI -11

_____LAKE CHAMPLAIN_____


CITY           SKY/WX    TMP DP  RH WIND       PRES   REMARKS
BURTON ISLAND*   N/A     27  14  59 W15G21      N/A  WCI  15
COLCHESTER RF*   N/A     25   9  50 N23         N/A  WCI  10
DIAMOND ISL*     N/A     27   9  46 NW16        N/A  WCI  14

$$

NYZ007-026>031-035-052-083-161500-
_____NORTHERN NEW YORK_____


CITY           SKY/WX    TMP DP  RH WIND       PRES   REMARKS
PLATTSBURGH    SUNNY     25   9  50 NW14G20   30.36R WCI  13
SARANAC LAKE   PTSUNNY   16   6  65 W14G21    30.27R WCI   2
MASSENA        MOSUNNY   23  10  57 W12G22    30.44R WCI  12
OGDENSBURG*    MOSUNNY   27  12  54 NW10      30.45R WCI  17
POTSDAM*       MOSUNNY   23  12  63 NW9       30.43R
PARISHVILLE*     N/A     18 N/A N/A W9          N/A
WATERTOWN      SUNNY     27   8  44 VRB6      30.45R
FT DRUM        MOSUNNY   22   8  55 N13G18    30.41R WCI  10
ALBANY         MOSUNNY   30  11  45 NW20G26   30.34R WCI  17
GLENS FALLS    SUNNY     28  14  55 NW13      30.33R WCI  17

$$
NHZ002-005-011-161500-
_____NEW HAMPSHIRE_____


CITY           SKY/WX    TMP DP  RH WIND       PRES   REMARKS
LEBANON        PTSUNNY   28  16  60 NW10      30.26R WCI  19
KEENE          MOSUNNY   28  16  59 NW9G23    30.27R
MT WASHINGTON  FOG       -2  -2 100 NW69G76     N/A  VSB 0   WCI -38
PLYMOUTH         N/A     27  15  59 NW17G25   30.26R WCI  15
WHITEFIELD     CLOUDY    23  12  62 W14G21    30.23R WCI  11

$$

_____REGIONAL QUEBEC LOCATIONS_____


CITY           SKY/WX    TMP DP  RH WIND       PRES   REMARKS
MONTREAL       MOSUNNY   21   5  49 W15G22    30.39R WCI   8
QUEBEC CITY    MOSUNNY   19   9  63 W20       30.22R WCI   4
SHERBROOKE     FLURRIES  19  12  73 W17G28    30.28R WCI   4

_____REGIONAL ONTARIO LOCATIONS_____


CITY           SKY/WX    TMP DP  RH WIND       PRES   REMARKS
OTTAWA         MOSUNNY   21   9  58 W9G17     30.44R

______KEY______
VSB  - VISIBILITY IN MILES
WCI  - WIND CHILL INDEX
HX   - HEAT INDEX
$$
NNNN



USA.gov is the U.S. government's official web portal to all federal, state and local government web resources and services.